QPF
0.00 0.00 0.00 0.00 0.00 0.00 0.00 0.00 0.00 0.00 0.00 0.00 0.00 0.00 0.00 0.00 0.00 0.01 0.00 0.00 0.00 0.00 0.00 0.00 0.01 0.01 0.01 0.01 0.02 0.02 0.02 0.03 0.03 0.03 0.03 0.02 0.04 0.04 0.03 0.05 0.07 0.10 0.10 0.08 0.07 0.08 0.08 0.09 0.13
0.00 0.00 0.00 0.00 0.00 0.00 0.00 0.00 0.00 0.00 0.00 0.00 0.00 0.00 0.00 0.00 0.00 0.00 0.00 0.00 0.00 0.00 0.00 0.00 0.01 0.01 0.01 0.02 0.03 0.04 0.03 0.03 0.03 0.02 0.03 0.02 0.03 0.04 0.04 0.04 0.04 0.08 0.10 0.10 0.09 0.09 0.08 0.08 0.11
0.00 0.00 0.00 0.00 0.00 0.00 0.00 0.00 0.00 0.00 0.00 0.00 0.00 0.00 0.00 0.00 0.00 0.00 0.00 0.00 0.00 0.00 0.00 0.00 0.01 0.01 0.01 0.02 0.04 0.05 0.03 0.04 0.02 0.02 0.02 0.02 0.02 0.03 0.04 0.05 0.05 0.04 0.07 0.09 0.09 0.09 0.08 0.09 0.10
0.00 0.00 0.00 0.00 0.00 0.00 0.00 0.00 0.00 0.00 0.00 0.00 0.00 0.00 0.00 0.00 0.00 0.00 0.00 0.00 0.00 0.00 0.00 0.00 0.01 0.02 0.02 0.02 0.04 0.06 0.06 0.05 0.03 0.02 0.01 0.02 0.02 0.03 0.04 0.05 0.09 0.08 0.07 0.08 0.08 0.08 0.09 0.10 0.12
0.00 0.00 0.00 0.00 0.00 0.00 0.00 0.00 0.00 0.00 0.00 0.00 0.00 0.00 0.00 0.00 0.00 0.00 0.00 0.00 0.00 0.00 0.00 0.00 0.01 0.01 0.02 0.02 0.03 0.04 0.10 0.08 0.03 0.02 0.01 0.02 0.02 0.03 0.04 0.04 0.06 0.10 0.09 0.06 0.06 0.07 0.07 0.08 0.11
0.00 0.00 0.00 0.00 0.00 0.00 0.00 0.00 0.00 0.00 0.00 0.00 0.00 0.00 0.00 0.00 0.00 0.00 0.00 0.00 0.00 0.00 0.01 0.01 0.01 0.01 0.01 0.02 0.03 0.03 0.07 0.09 0.04 0.03 0.02 0.02 0.03 0.03 0.02 0.03 0.05 0.06 0.07 0.06 0.05 0.06 0.06 0.06 0.08
0.00 0.00 0.00 0.00 0.00 0.00 0.00 0.00 0.00 0.00 0.00 0.00 0.00 0.00 0.00 0.00 0.00 0.00 0.00 0.00 0.00 0.00 0.01 0.01 0.01 0.02 0.02 0.02 0.04 0.03 0.03 0.05 0.04 0.03 0.03 0.03 0.03 0.02 0.02 0.02 0.03 0.04 0.05 0.05 0.05 0.04 0.04 0.05 0.07
0.00 0.00 0.00 0.00 0.00 0.00 0.00 0.00 0.00 0.00 0.00 0.00 0.00 0.00 0.00 0.00 0.00 0.00 0.00 0.00 0.00 0.00 0.01 0.01 0.01 0.01 0.02 0.03 0.04 0.04 0.02 0.03 0.04 0.03 0.03 0.03 0.03 0.02 0.02 0.02 0.03 0.04 0.05 0.06 0.05 0.04 0.04 0.04 0.04
0.00 0.00 0.00 0.00 0.00 0.00 0.00 0.00 0.00 0.00 0.00 0.00 0.00 0.00 0.00 0.00 0.00 0.00 0.00 0.00 0.00 0.00 0.01 0.01 0.01 0.02 0.03 0.04 0.04 0.05 0.04 0.03 0.04 0.04 0.04 0.04 0.04 0.03 0.03 0.02 0.03 0.04 0.05 0.06 0.05 0.04 0.03 0.03 0.03
0.00 0.00 0.00 0.00 0.00 0.00 0.00 0.00 0.00 0.00 0.00 0.00 0.00 0.00 0.00 0.00 0.00 0.00 0.00 0.00 0.00 0.01 0.01 0.01 0.01 0.02 0.03 0.05 0.06 0.08 0.07 0.05 0.04 0.04 0.04 0.04 0.04 0.04 0.02 0.02 0.02 0.03 0.04 0.05 0.05 0.04 0.03 0.03 0.03
0.00 0.00 0.00 0.00 0.00 0.00 0.00 0.00 0.00 0.00 0.00 0.00 0.00 0.00 0.00 0.00 0.00 0.00 0.00 0.01 0.01 0.01 0.01 0.02 0.02 0.03 0.03 0.05 0.06 0.10 0.09 0.06 0.04 0.04 0.04 0.04 0.04 0.04 0.02 0.02 0.02 0.02 0.03 0.03 0.03 0.02 0.03 0.02 0.02
0.00 0.00 0.00 0.00 0.00 0.00 0.00 0.00 0.00 0.00 0.00 0.00 0.00 0.00 0.00 0.00 0.00 0.01 0.01 0.01 0.01 0.02 0.02 0.02 0.03 0.03 0.04 0.04 0.06 0.12 0.10 0.05 0.05 0.05 0.04 0.03 0.03 0.03 0.03 0.02 0.02 0.02 0.02 0.02 0.02 0.02 0.02 0.01 0.02
0.00 0.00 0.00 0.00 0.00 0.00 0.00 0.00 0.00 0.00 0.00 0.00 0.00 0.00 0.00 0.00 0.00 0.01 0.01 0.01 0.01 0.01 0.01 0.02 0.02 0.03 0.04 0.05 0.07 0.16 0.16 0.07 0.05 0.04 0.03 0.03 0.02 0.02 0.02 0.02 0.02 0.01 0.01 0.02 0.01 0.01 0.01 0.01 0.01
0.00 0.00 0.00 0.00 0.00 0.00 0.00 0.00 0.00 0.00 0.00 0.00 0.00 0.00 0.00 0.00 0.00 0.00 0.01 0.02 0.01 0.01 0.01 0.01 0.02 0.02 0.02 0.04 0.07 0.14 0.11 0.05 0.03 0.03 0.03 0.03 0.02 0.02 0.02 0.02 0.02 0.01 0.02 0.02 0.01 0.01 0.01 0.01 0.01
0.00 0.00 0.00 0.00 0.00 0.00 0.00 0.00 0.00 0.00 0.00 0.00 0.00 0.00 0.00 0.00 0.00 0.01 0.02 0.02 0.01 0.01 0.01 0.01 0.01 0.01 0.01 0.01 0.02 0.04 0.04 0.04 0.04 0.03 0.04 0.02 0.02 0.01 0.02 0.02 0.02 0.02 0.02 0.01 0.01 0.02 0.02 0.01 0.02
0.00 0.00 0.00 0.00 0.00 0.00 0.00 0.00 0.00 0.00 0.00 0.00 0.00 0.00 0.00 0.00 0.00 0.01 0.01 0.02 0.01 0.01 0.01 0.01 0.01 0.01 0.01 0.01 0.01 0.01 0.01 0.03 0.05 0.05 0.04 0.02 0.02 0.02 0.02 0.02 0.02 0.02 0.02 0.02 0.02 0.02 0.02 0.03 0.03
0.00 0.00 0.00 0.00 0.00 0.00 0.00 0.00 0.00 0.00 0.00 0.00 0.00 0.00 0.00 0.00 0.00 0.00 0.01 0.00 0.00 0.00 0.01 0.01 0.00 0.00 0.00 0.01 0.01 0.01 0.02 0.02 0.04 0.06 0.07 0.04 0.03 0.03 0.03 0.03 0.03 0.02 0.02 0.02 0.02 0.03 0.04 0.03 0.04
0.00 0.00 0.00 0.00 0.00 0.00 0.00 0.00 0.00 0.00 0.00 0.00 0.00 0.00 0.00 0.00 0.00 0.00 0.00 0.00 0.00 0.01 0.01 0.01 0.00 0.00 0.01 0.01 0.02 0.03 0.04 0.04 0.04 0.05 0.05 0.05 0.04 0.04 0.04 0.05 0.05 0.04 0.03 0.03 0.04 0.05 0.04 0.03 0.03
0.00 0.00 0.00 0.00 0.00 0.00 0.01 0.01 0.00 0.00 0.00 0.00 0.00 0.00 0.00 0.01 0.01 0.01 0.00 0.00 0.00 0.00 0.00 0.00 0.01 0.01 0.01 0.02 0.03 0.02 0.04 0.05 0.04 0.04 0.03 0.03 0.05 0.04 0.04 0.05 0.07 0.07 0.06 0.05 0.05 0.05 0.04 0.03 0.04
0.00 0.00 0.00 0.00 0.00 0.00 0.00 0.00 0.00 0.00 0.00 0.00 0.00 0.00 0.00 0.00 0.00 0.01 0.01 0.01 0.00 0.00 0.00 0.00 0.01 0.01 0.01 0.02 0.03 0.02 0.04 0.04 0.04 0.04 0.04 0.04 0.06 0.05 0.05 0.05 0.06 0.08 0.07 0.06 0.05 0.04 0.04 0.03 0.03
0.00 0.00 0.00 0.00 0.00 0.00 0.00 0.00 0.00 0.00 0.00 0.00 0.00 0.00 0.00 0.00 0.00 0.01 0.02 0.02 0.02 0.01 0.01 0.01 0.02 0.02 0.03 0.03 0.03 0.03 0.04 0.03 0.03 0.04 0.03 0.03 0.04 0.04 0.05 0.05 0.05 0.06 0.06 0.06 0.06 0.06 0.05 0.04 0.03
0.00 0.00 0.00 0.00 0.00 0.00 0.00 0.00 0.00 0.00 0.00 0.00 0.00 0.00 0.01 0.01 0.01 0.01 0.02 0.02 0.02 0.02 0.02 0.02 0.04 0.04 0.04 0.03 0.03 0.03 0.04 0.03 0.02 0.03 0.03 0.04 0.05 0.04 0.04 0.05 0.06 0.06 0.05 0.06 0.06 0.05 0.05 0.04 0.03
0.00 0.00 0.00 0.00 0.00 0.00 0.00 0.00 0.00 0.00 0.00 0.00 0.00 0.00 0.00 0.01 0.01 0.01 0.03 0.04 0.05 0.04 0.03 0.03 0.04 0.04 0.04 0.05 0.05 0.05 0.03 0.03 0.03 0.03 0.03 0.03 0.03 0.03 0.03 0.05 0.07 0.07 0.05 0.05 0.05 0.04 0.04 0.04 0.03
0.00 0.00 0.00 0.00 0.00 0.00 0.00 0.00 0.00 0.00 0.00 0.00 0.00 0.00 0.00 0.00 0.00 0.01 0.03 0.05 0.04 0.04 0.03 0.03 0.04 0.05 0.06 0.05 0.05 0.05 0.04 0.04 0.04 0.04 0.04 0.04 0.04 0.04 0.04 0.04 0.05 0.06 0.05 0.04 0.05 0.05 0.04 0.04 0.05
0.00 0.00 0.00 0.00 0.00 0.00 0.00 0.00 0.00 0.00 0.00 0.00 0.00 0.00 0.00 0.01 0.01 0.02 0.02 0.02 0.02 0.03 0.03 0.03 0.03 0.04 0.04 0.05 0.05 0.04 0.03 0.03 0.03 0.03 0.04 0.04 0.05 0.05 0.05 0.05 0.04 0.04 0.04 0.04 0.04 0.04 0.05 0.04 0.05
0.00 0.00 0.00 0.00 0.00 0.00 0.00 0.00 0.00 0.00 0.00 0.00 0.01 0.01 0.01 0.01 0.01 0.01 0.01 0.01 0.01 0.01 0.02 0.03 0.03 0.03 0.04 0.03 0.04 0.04 0.04 0.04 0.02 0.02 0.02 0.03 0.03 0.04 0.04 0.05 0.05 0.05 0.06 0.05 0.05 0.06 0.06 0.05 0.06
0.00 0.00 0.00 0.00 0.00 0.00 0.00 0.01 0.01 0.00 0.00 0.00 0.01 0.01 0.01 0.01 0.01 0.01 0.01 0.01 0.01 0.01 0.03 0.04 0.03 0.03 0.03 0.03 0.03 0.04 0.05 0.05 0.04 0.02 0.01 0.02 0.03 0.06 0.07 0.06 0.05 0.06 0.07 0.07 0.07 0.06 0.06 0.05 0.05
0.00 0.00 0.00 0.00 0.01 0.01 0.00 0.01 0.01 0.00 0.01 0.01 0.01 0.01 0.02 0.02 0.01 0.01 0.01 0.01 0.01 0.02 0.02 0.02 0.01 0.02 0.02 0.03 0.02 0.02 0.02 0.03 0.02 0.02 0.02 0.02 0.03 0.06 0.09 0.09 0.07 0.07 0.06 0.05 0.05 0.06 0.06 0.06 0.06
0.00 0.00 0.00 0.00 0.01 0.01 0.01 0.01 0.00 0.00 0.01 0.01 0.01 0.02 0.02 0.01 0.01 0.01 0.01 0.01 0.01 0.01 0.00 0.01 0.01 0.02 0.02 0.01 0.01 0.01 0.01 0.01 0.02 0.02 0.02 0.03 0.04 0.04 0.06 0.08 0.10 0.09 0.08 0.06 0.06 0.04 0.04 0.04 0.05
0.00 0.00 0.00 0.01 0.01 0.01 0.01 0.01 0.00 0.00 0.01 0.01 0.02 0.02 0.01 0.01 0.01 0.01 0.01 0.01 0.00 0.01 0.00 0.01 0.02 0.02 0.02 0.01 0.01 0.01 0.01 0.01 0.02 0.02 0.01 0.02 0.01 0.02 0.02 0.04 0.06 0.09 0.10 0.10 0.09 0.06 0.05 0.04 0.04
MSLP
1005.47 1006.08 1006.82 1007.59 1008.30 1008.88 1009.32 1009.62 1009.84 1010.02 1010.22 1010.46 1010.73 1010.99 1011.20 1011.30 1011.29 1011.18 1011.01 1010.88 1010.84 1010.96 1011.24 1011.66 1012.14 1012.61 1012.97 1013.17 1013.20 1013.08 1012.89 1012.71 1012.59 1012.57 1012.66 1012.81 1012.97 1013.06 1013.05 1012.91 1012.67 1012.38 1012.11 1011.89 1011.78 1011.78 1011.85 1011.96 1012.06
1005.47 1006.18 1007.01 1007.84 1008.57 1009.12 1009.49 1009.69 1009.77 1009.82 1009.90 1010.05 1010.25 1010.49 1010.71 1010.85 1010.91 1010.87 1010.80 1010.75 1010.79 1010.97 1011.31 1011.77 1012.29 1012.78 1013.16 1013.37 1013.42 1013.33 1013.16 1012.99 1012.89 1012.90 1013.00 1013.16 1013.31 1013.40 1013.39 1013.25 1013.02 1012.75 1012.50 1012.31 1012.22 1012.23 1012.31 1012.41 1012.48
1005.61 1006.40 1007.28 1008.12 1008.82 1009.31 1009.58 1009.66 1009.62 1009.55 1009.53 1009.60 1009.78 1010.02 1010.27 1010.47 1010.60 1010.65 1010.65 1010.67 1010.76 1010.98 1011.35 1011.83 1012.37 1012.88 1013.29 1013.54 1013.63 1013.58 1013.45 1013.31 1013.24 1013.26 1013.36 1013.52 1013.66 1013.75 1013.73 1013.60 1013.40 1013.16 1012.95 1012.80 1012.75 1012.79 1012.87 1012.95 1012.99
1005.90 1006.72 1007.60 1008.41 1009.05 1009.45 1009.61 1009.57 1009.42 1009.26 1009.17 1009.21 1009.39 1009.66 1009.96 1010.24 1010.45 1010.56 1010.62 1010.68 1010.80 1011.03 1011.40 1011.88 1012.43 1012.96 1013.39 1013.69 1013.82 1013.83 1013.75 1013.66 1013.61 1013.64 1013.74 1013.88 1014.01 1014.09 1014.07 1013.96 1013.79 1013.59 1013.43 1013.34 1013.33 1013.39 1013.47 1013.54 1013.56
1006.30 1007.10 1007.94 1008.68 1009.23 1009.53 1009.59 1009.45 1009.22 1009.00 1008.89 1008.94 1009.14 1009.46 1009.84 1010.19 1010.47 1010.64 1010.74 1010.82 1010.94 1011.15 1011.50 1011.96 1012.49 1013.02 1013.48 1013.82 1014.01 1014.07 1014.05 1014.00 1013.97 1014.01 1014.10 1014.23 1014.34 1014.41 1014.40 1014.31 1014.17 1014.02 1013.91 1013.86 1013.88 1013.96 1014.05 1014.11 1014.09
1006.75 1007.51 1008.26 1008.91 1009.35 1009.55 1009.51 1009.31 1009.03 1008.80 1008.70 1008.78 1009.04 1009.43 1009.88 1010.30 1010.64 1010.86 1010.98 1011.06 1011.16 1011.34 1011.64 1012.07 1012.57 1013.10 1013.57 1013.94 1014.17 1014.29 1014.31 1014.30 1014.30 1014.34 1014.42 1014.53 1014.63 1014.69 1014.69 1014.62 1014.51 1014.40 1014.32 1014.31 1014.35 1014.44 1014.53 1014.57 1014.54
1007.20 1007.87 1008.52 1009.05 1009.38 1009.48 1009.37 1009.12 1008.84 1008.62 1008.56 1008.70 1009.03 1009.49 1010.01 1010.50 1010.89 1011.15 1011.29 1011.36 1011.43 1011.57 1011.82 1012.20 1012.67 1013.17 1013.64 1014.03 1014.30 1014.45 1014.51 1014.53 1014.54 1014.59 1014.67 1014.77 1014.86 1014.91 1014.92 1014.86 1014.78 1014.69 1014.64 1014.63 1014.68 1014.77 1014.84 1014.87 1014.83
1007.60 1008.17 1008.69 1009.08 1009.30 1009.31 1009.15 1008.89 1008.61 1008.44 1008.43 1008.63 1009.02 1009.55 1010.14 1010.68 1011.11 1011.40 1011.56 1011.63 1011.68 1011.79 1012.01 1012.33 1012.76 1013.23 1013.69 1014.07 1014.36 1014.53 1014.62 1014.66 1014.69 1014.74 1014.82 1014.92 1015.01 1015.07 1015.08 1015.04 1014.96 1014.89 1014.84 1014.83 1014.87 1014.93 1014.98 1015.00 1014.97
1007.92 1008.36 1008.75 1009.02 1009.12 1009.06 1008.86 1008.59 1008.34 1008.20 1008.24 1008.49 1008.94 1009.51 1010.14 1010.73 1011.21 1011.53 1011.72 1011.80 1011.86 1011.96 1012.15 1012.45 1012.84 1013.28 1013.71 1014.08 1014.36 1014.54 1014.64 1014.69 1014.74 1014.80 1014.89 1014.99 1015.09 1015.15 1015.17 1015.14 1015.07 1015.00 1014.93 1014.91 1014.92 1014.95 1014.98 1014.99 1014.95
1008.14 1008.46 1008.72 1008.86 1008.87 1008.74 1008.51 1008.24 1008.00 1007.89 1007.96 1008.24 1008.72 1009.32 1009.98 1010.60 1011.11 1011.48 1011.72 1011.85 1011.94 1012.06 1012.25 1012.53 1012.89 1013.30 1013.70 1014.04 1014.31 1014.48 1014.59 1014.65 1014.71 1014.78 1014.88 1014.99 1015.11 1015.19 1015.22 1015.19 1015.13 1015.04 1014.96 1014.91 1014.88 1014.88 1014.89 1014.88 1014.85
1008.26 1008.47 1008.61 1008.65 1008.58 1008.39 1008.13 1007.86 1007.63 1007.53 1007.61 1007.89 1008.36 1008.96 1009.63 1010.27 1010.83 1011.26 1011.56 1011.76 1011.92 1012.08 1012.30 1012.59 1012.94 1013.32 1013.69 1014.00 1014.24 1014.41 1014.50 1014.57 1014.64 1014.72 1014.84 1014.97 1015.10 1015.20 1015.24 1015.23 1015.17 1015.07 1014.97 1014.89 1014.83 1014.80 1014.78 1014.76 1014.72
1008.29 1008.41 1008.46 1008.42 1008.29 1008.07 1007.79 1007.50 1007.26 1007.15 1007.21 1007.46 1007.91 1008.49 1009.15 1009.81 1010.41 1010.90 1011.29 1011.58 1011.83 1012.07 1012.34 1012.65 1013.00 1013.36 1013.70 1013.99 1014.20 1014.35 1014.44 1014.50 1014.57 1014.67 1014.81 1014.96 1015.11 1015.22 1015.29 1015.28 1015.22 1015.12 1015.01 1014.90 1014.82 1014.76 1014.72 1014.68 1014.63
1008.24 1008.30 1008.30 1008.21 1008.04 1007.80 1007.51 1007.21 1006.95 1006.81 1006.83 1007.04 1007.43 1007.97 1008.61 1009.28 1009.92 1010.49 1010.97 1011.37 1011.72 1012.05 1012.38 1012.74 1013.10 1013.45 1013.77 1014.03 1014.22 1014.34 1014.42 1014.48 1014.56 1014.67 1014.82 1014.99 1015.15 1015.29 1015.36 1015.37 1015.32 1015.22 1015.10 1014.99 1014.89 1014.82 1014.75 1014.69 1014.62
1008.13 1008.17 1008.14 1008.05 1007.88 1007.64 1007.34 1007.03 1006.75 1006.57 1006.53 1006.67 1007.00 1007.49 1008.10 1008.78 1009.46 1010.11 1010.68 1011.19 1011.64 1012.06 1012.47 1012.87 1013.25 1013.60 1013.90 1014.14 1014.30 1014.41 1014.48 1014.54 1014.62 1014.74 1014.90 1015.07 1015.25 1015.39 1015.48 1015.50 1015.46 1015.37 1015.26 1015.15 1015.05 1014.97 1014.89 1014.82 1014.72
1007.97 1008.01 1008.01 1007.94 1007.80 1007.58 1007.30 1006.98 1006.67 1006.44 1006.34 1006.41 1006.67 1007.10 1007.68 1008.36 1009.08 1009.78 1010.45 1011.05 1011.60 1012.11 1012.58 1013.02 1013.42 1013.78 1014.07 1014.29 1014.45 1014.55 1014.61 1014.67 1014.75 1014.87 1015.03 1015.21 1015.39 1015.53 1015.63 1015.66 1015.63 1015.56 1015.46 1015.36 1015.27 1015.19 1015.12 1015.03 1014.92
1007.78 1007.85 1007.89 1007.88 1007.79 1007.62 1007.36 1007.04 1006.70 1006.42 1006.25 1006.24 1006.42 1006.80 1007.35 1008.02 1008.76 1009.52 1010.25 1010.94 1011.57 1012.15 1012.67 1013.15 1013.58 1013.94 1014.24 1014.47 1014.62 1014.72 1014.79 1014.85 1014.93 1015.05 1015.20 1015.37 1015.54 1015.69 1015.79 1015.82 1015.81 1015.75 1015.67 1015.59 1015.52 1015.46 1015.39 1015.31 1015.18
1007.55 1007.69 1007.81 1007.87 1007.85 1007.73 1007.49 1007.16 1006.80 1006.45 1006.21 1006.13 1006.24 1006.56 1007.07 1007.73 1008.48 1009.27 1010.06 1010.80 1011.50 1012.13 1012.70 1013.22 1013.67 1014.06 1014.37 1014.61 1014.78 1014.89 1014.97 1015.04 1015.12 1015.23 1015.37 1015.53 1015.69 1015.83 1015.92 1015.97 1015.97 1015.93 1015.87 1015.82 1015.77 1015.72 1015.67 1015.59 1015.47
1007.31 1007.53 1007.74 1007.90 1007.95 1007.88 1007.66 1007.32 1006.91 1006.50 1006.17 1006.00 1006.04 1006.30 1006.76 1007.40 1008.16 1008.97 1009.79 1010.58 1011.32 1011.99 1012.61 1013.16 1013.64 1014.06 1014.41 1014.68 1014.88 1015.02 1015.12 1015.20 1015.28 1015.39 1015.52 1015.66 1015.81 1015.94 1016.04 1016.09 1016.10 1016.08 1016.05 1016.02 1015.99 1015.96 1015.93 1015.87 1015.76
1007.06 1007.38 1007.70 1007.95 1008.08 1008.05 1007.83 1007.46 1006.99 1006.50 1006.08 1005.82 1005.77 1005.96 1006.37 1006.98 1007.73 1008.55 1009.39 1010.21 1010.98 1011.69 1012.35 1012.94 1013.47 1013.94 1014.33 1014.65 1014.90 1015.08 1015.21 1015.31 1015.40 1015.50 1015.62 1015.76 1015.89 1016.02 1016.12 1016.19 1016.22 1016.22 1016.21 1016.20 1016.19 1016.18 1016.16 1016.11 1016.02
1006.82 1007.26 1007.69 1008.04 1008.23 1008.22 1007.99 1007.57 1007.02 1006.43 1005.91 1005.54 1005.40 1005.51 1005.87 1006.43 1007.16 1007.98 1008.83 1009.67 1010.47 1011.22 1011.92 1012.57 1013.15 1013.68 1014.14 1014.53 1014.83 1015.06 1015.23 1015.35 1015.46 1015.56 1015.68 1015.80 1015.94 1016.08 1016.19 1016.28 1016.34 1016.37 1016.38 1016.39 1016.39 1016.38 1016.37 1016.34 1016.26
1006.60 1007.16 1007.70 1008.14 1008.39 1008.39 1008.13 1007.64 1007.00 1006.30 1005.66 1005.18 1004.93 1004.96 1005.25 1005.77 1006.46 1007.27 1008.12 1008.97 1009.80 1010.59 1011.34 1012.05 1012.71 1013.31 1013.85 1014.31 1014.69 1014.97 1015.18 1015.33 1015.45 1015.56 1015.68 1015.81 1015.96 1016.12 1016.26 1016.39 1016.49 1016.55 1016.59 1016.60 1016.61 1016.60 1016.58 1016.55 1016.48
1006.39 1007.08 1007.74 1008.26 1008.55 1008.55 1008.24 1007.68 1006.93 1006.12 1005.36 1004.76 1004.42 1004.35 1004.57 1005.03 1005.69 1006.47 1007.32 1008.18 1009.03 1009.86 1010.66 1011.44 1012.17 1012.86 1013.48 1014.02 1014.46 1014.81 1015.06 1015.25 1015.38 1015.50 1015.63 1015.78 1015.95 1016.14 1016.33 1016.51 1016.66 1016.76 1016.83 1016.86 1016.86 1016.84 1016.81 1016.76 1016.69
1006.18 1006.99 1007.75 1008.34 1008.67 1008.66 1008.31 1007.68 1006.84 1005.92 1005.05 1004.35 1003.91 1003.76 1003.90 1004.30 1004.91 1005.66 1006.48 1007.35 1008.21 1009.08 1009.93 1010.76 1011.57 1012.34 1013.04 1013.66 1014.17 1014.58 1014.87 1015.09 1015.24 1015.38 1015.53 1015.70 1015.91 1016.15 1016.39 1016.63 1016.84 1017.00 1017.10 1017.14 1017.14 1017.11 1017.05 1016.98 1016.89
1005.93 1006.86 1007.70 1008.35 1008.70 1008.69 1008.31 1007.62 1006.71 1005.71 1004.77 1003.99 1003.46 1003.23 1003.30 1003.64 1004.19 1004.90 1005.69 1006.54 1007.40 1008.28 1009.17 1010.05 1010.93 1011.76 1012.54 1013.23 1013.80 1014.26 1014.60 1014.85 1015.03 1015.19 1015.36 1015.56 1015.81 1016.10 1016.41 1016.72 1016.99 1017.20 1017.35 1017.42 1017.42 1017.37 1017.29 1017.18 1017.08
1005.63 1006.62 1007.53 1008.22 1008.58 1008.57 1008.18 1007.47 1006.54 1005.50 1004.51 1003.69 1003.11 1002.82 1002.83 1003.10 1003.59 1004.23 1004.97 1005.78 1006.63 1007.50 1008.40 1009.32 1010.23 1011.12 1011.96 1012.71 1013.34 1013.85 1014.24 1014.52 1014.73 1014.92 1015.11 1015.35 1015.65 1015.99 1016.36 1016.73 1017.07 1017.34 1017.53 1017.63 1017.64 1017.59 1017.48 1017.36 1017.23
1005.22 1006.25 1007.18 1007.88 1008.26 1008.26 1007.89 1007.19 1006.27 1005.25 1004.27 1003.44 1002.84 1002.52 1002.48 1002.69 1003.11 1003.68 1004.35 1005.10 1005.90 1006.75 1007.63 1008.55 1009.48 1010.40 1011.28 1012.08 1012.76 1013.32 1013.75 1014.08 1014.33 1014.55 1014.79 1015.06 1015.40 1015.79 1016.22 1016.65 1017.05 1017.37 1017.61 1017.74 1017.77 1017.72 1017.61 1017.47 1017.33
1004.71 1005.71 1006.62 1007.31 1007.69 1007.72 1007.39 1006.75 1005.89 1004.94 1004.02 1003.23 1002.65 1002.32 1002.25 1002.41 1002.75 1003.24 1003.83 1004.50 1005.22 1006.01 1006.85 1007.74 1008.67 1009.60 1010.50 1011.33 1012.07 1012.68 1013.16 1013.54 1013.84 1014.11 1014.39 1014.71 1015.09 1015.52 1015.99 1016.47 1016.91 1017.29 1017.56 1017.73 1017.79 1017.76 1017.66 1017.52 1017.38
1004.09 1005.02 1005.86 1006.51 1006.89 1006.95 1006.68 1006.13 1005.38 1004.54 1003.73 1003.02 1002.50 1002.20 1002.12 1002.23 1002.51 1002.91 1003.40 1003.97 1004.61 1005.31 1006.08 1006.92 1007.81 1008.72 1009.63 1010.49 1011.26 1011.92 1012.47 1012.92 1013.28 1013.62 1013.95 1014.32 1014.73 1015.20 1015.71 1016.21 1016.69 1017.10 1017.41 1017.61 1017.71 1017.71 1017.63 1017.52 1017.39
1003.42 1004.22 1004.96 1005.55 1005.91 1006.00 1005.81 1005.38 1004.77 1004.08 1003.41 1002.83 1002.40 1002.14 1002.07 1002.16 1002.38 1002.70 1003.09 1003.55 1004.07 1004.67 1005.35 1006.10 1006.93 1007.81 1008.71 1009.58 1010.38 1011.10 1011.72 1012.24 1012.69 1013.10 1013.50 1013.92 1014.38 1014.88 1015.41 1015.94 1016.43 1016.86 1017.20 1017.44 1017.57 1017.61 1017.58 1017.50 1017.40
1002.77 1003.41 1004.03 1004.55 1004.88 1005.00 1004.89 1004.58 1004.14 1003.61 1003.10 1002.66 1002.34 1002.16 1002.12 1002.19 1002.36 1002.61 1002.90 1003.25 1003.66 1004.14 1004.70 1005.36 1006.11 1006.93 1007.79 1008.65 1009.48 1010.25 1010.94 1011.55 1012.09 1012.58 1013.06 1013.55 1014.06 1014.59 1015.14 1015.69 1016.20 1016.64 1017.01 1017.27 1017.44 1017.52 1017.54 1017.50 1017.45
Thickness
5820 5825 5829 5826 5820 5820 5810 5815 5823 5822 5824 5832 5832 5827 5821 5815 5808 5798 5819 5826 5822 5816 5807 5797 5791 5787 5785 5782 5780 5778 5776 5774 5772 5770 5769 5767 5766 5765 5764 5764 5763 5762 5761 5761 5761 5760 5759 5758 5757
5827 5828 5825 5825 5818 5805 5806 5819 5820 5824 5829 5834 5832 5828 5822 5818 5822 5819 5821 5821 5820 5816 5808 5799 5789 5786 5783 5780 5778 5776 5774 5772 5770 5768 5766 5765 5763 5762 5762 5761 5760 5759 5759 5758 5758 5758 5757 5755 5754
5828 5828 5823 5824 5814 5808 5808 5820 5823 5830 5836 5832 5828 5829 5823 5818 5821 5821 5822 5821 5819 5814 5808 5796 5788 5785 5781 5778 5776 5774 5772 5770 5768 5766 5764 5762 5761 5760 5759 5758 5758 5757 5756 5756 5755 5755 5754 5753 5752
5826 5824 5824 5818 5809 5816 5818 5824 5828 5827 5832 5834 5829 5822 5824 5825 5826 5826 5824 5821 5817 5813 5807 5795 5787 5783 5780 5777 5774 5772 5769 5767 5765 5764 5762 5760 5759 5757 5756 5755 5755 5754 5754 5753 5752 5752 5752 5751 5750
5826 5822 5814 5810 5811 5820 5826 5829 5829 5826 5827 5830 5828 5819 5816 5824 5829 5826 5822 5819 5815 5811 5806 5795 5786 5782 5778 5775 5772 5770 5767 5765 5763 5761 5760 5758 5757 5755 5754 5753 5752 5751 5751 5751 5750 5750 5750 5749 5749
5820 5819 5806 5803 5810 5819 5826 5831 5830 5827 5828 5830 5827 5819 5815 5824 5824 5822 5821 5817 5814 5809 5804 5793 5783 5780 5776 5773 5771 5768 5765 5763 5761 5759 5757 5756 5755 5753 5752 5751 5750 5749 5749 5748 5748 5748 5748 5748 5747
5813 5811 5804 5807 5808 5812 5821 5831 5828 5825 5825 5828 5831 5819 5816 5820 5822 5822 5819 5815 5812 5807 5802 5795 5788 5780 5775 5772 5768 5766 5763 5761 5759 5757 5756 5754 5753 5751 5750 5750 5748 5747 5747 5747 5747 5747 5746 5746 5745
5820 5812 5805 5808 5805 5809 5823 5828 5830 5827 5825 5835 5834 5820 5816 5819 5821 5819 5815 5811 5808 5804 5800 5795 5791 5785 5778 5773 5767 5764 5761 5759 5757 5755 5754 5753 5751 5750 5749 5748 5747 5746 5746 5745 5745 5745 5745 5745 5744
5817 5803 5800 5806 5806 5812 5823 5822 5828 5834 5830 5830 5832 5828 5827 5825 5820 5813 5808 5805 5802 5799 5797 5793 5790 5785 5780 5776 5768 5763 5760 5757 5755 5754 5752 5752 5754 5753 5749 5748 5746 5745 5744 5744 5743 5743 5743 5744 5743
5808 5797 5804 5815 5818 5817 5820 5820 5823 5824 5822 5822 5822 5823 5824 5820 5815 5809 5804 5800 5798 5794 5793 5791 5788 5784 5780 5775 5769 5765 5762 5758 5757 5755 5753 5753 5753 5752 5750 5745 5744 5743 5743 5743 5742 5743 5743 5745 5747
5806 5801 5811 5816 5820 5819 5816 5819 5825 5818 5814 5820 5819 5817 5818 5815 5812 5809 5806 5803 5799 5795 5791 5790 5786 5782 5778 5774 5769 5765 5762 5759 5756 5755 5753 5752 5751 5750 5749 5748 5745 5744 5743 5745 5743 5745 5747 5747 5747
5802 5806 5811 5814 5818 5815 5814 5818 5817 5816 5818 5828 5828 5824 5818 5814 5812 5809 5806 5803 5800 5794 5789 5788 5784 5780 5776 5773 5769 5765 5762 5759 5757 5753 5752 5751 5751 5749 5749 5747 5747 5746 5745 5744 5745 5745 5745 5745 5745
5797 5802 5809 5813 5814 5815 5814 5813 5813 5815 5824 5828 5826 5821 5817 5815 5812 5810 5808 5803 5798 5792 5788 5785 5782 5777 5773 5769 5767 5764 5761 5759 5755 5752 5750 5749 5750 5749 5748 5746 5744 5746 5745 5744 5743 5744 5742 5742 5743
5799 5801 5805 5810 5811 5812 5808 5811 5811 5813 5821 5820 5818 5815 5815 5812 5810 5807 5803 5798 5795 5791 5787 5784 5779 5775 5771 5767 5764 5762 5760 5756 5755 5752 5749 5748 5748 5746 5745 5744 5742 5743 5743 5743 5742 5741 5741 5742 5741
5797 5792 5798 5805 5807 5810 5807 5800 5805 5814 5816 5812 5811 5811 5810 5809 5808 5803 5800 5796 5793 5789 5785 5781 5777 5773 5769 5766 5763 5762 5759 5756 5754 5750 5747 5745 5745 5743 5743 5742 5741 5741 5741 5739 5739 5739 5739 5739 5739
5789 5785 5784 5799 5804 5806 5796 5788 5806 5813 5810 5806 5806 5806 5804 5804 5805 5803 5800 5796 5793 5788 5783 5779 5778 5772 5767 5764 5761 5760 5758 5754 5752 5749 5746 5743 5742 5741 5740 5741 5740 5739 5739 5739 5738 5738 5737 5737 5737
5779 5775 5780 5790 5800 5800 5794 5789 5803 5810 5806 5802 5802 5802 5801 5799 5801 5801 5799 5795 5791 5787 5781 5777 5775 5771 5767 5763 5759 5757 5754 5751 5749 5747 5744 5741 5739 5738 5738 5738 5737 5736 5737 5737 5737 5736 5735 5733 5733
5771 5775 5777 5781 5792 5791 5788 5789 5798 5803 5802 5800 5800 5798 5797 5795 5796 5798 5796 5794 5790 5785 5781 5776 5772 5768 5764 5760 5756 5754 5751 5748 5747 5744 5742 5739 5738 5736 5736 5735 5734 5734 5735 5734 5733 5731 5731 5731 5730
5777 5774 5773 5779 5789 5783 5782 5784 5791 5796 5797 5796 5795 5794 5793 5792 5795 5795 5793 5790 5787 5782 5778 5774 5769 5765 5761 5758 5754 5750 5747 5745 5743 5742 5739 5737 5736 5734 5732 5734 5732 5731 5732 5730 5730 5729 5728 5728 5728
5769 5766 5770 5777 5782 5776 5776 5779 5789 5791 5790 5791 5790 5790 5790 5790 5789 5788 5786 5785 5782 5778 5774 5770 5766 5763 5760 5757 5753 5749 5746 5743 5741 5740 5736 5734 5733 5731 5732 5730 5730 5729 5728 5726 5726 5725 5726 5726 5726
5762 5764 5767 5767 5772 5775 5771 5770 5780 5786 5789 5788 5789 5789 5789 5787 5784 5781 5779 5778 5777 5774 5771 5768 5763 5760 5756 5753 5749 5745 5741 5739 5737 5735 5733 5731 5730 5729 5728 5727 5727 5727 5727 5725 5723 5722 5721 5721 5722
5756 5768 5767 5764 5760 5765 5767 5758 5773 5780 5778 5779 5781 5783 5783 5783 5781 5778 5775 5773 5772 5771 5769 5765 5760 5756 5752 5749 5746 5742 5737 5735 5735 5733 5732 5730 5728 5727 5726 5725 5723 5723 5724 5723 5722 5721 5720 5718 5718
5761 5770 5763 5761 5758 5758 5764 5756 5768 5776 5768 5771 5775 5777 5778 5778 5776 5773 5771 5769 5768 5767 5765 5761 5756 5752 5749 5746 5743 5738 5736 5735 5734 5731 5729 5727 5727 5725 5724 5722 5721 5720 5720 5720 5719 5717 5716 5717 5715
5762 5758 5756 5756 5757 5741 5756 5752 5757 5767 5766 5768 5771 5771 5771 5771 5770 5768 5768 5766 5763 5762 5759 5756 5751 5747 5745 5742 5739 5736 5733 5731 5729 5727 5726 5725 5724 5723 5722 5720 5718 5718 5717 5716 5715 5714 5713 5712 5711
5753 5742 5733 5731 5735 5742 5759 5749 5754 5765 5769 5767 5765 5765 5765 5765 5764 5762 5761 5759 5757 5756 5753 5751 5747 5743 5741 5738 5736 5733 5731 5728 5726 5725 5724 5723 5722 5721 5719 5719 5716 5715 5713 5712 5711 5709 5709 5708 5706
5746 5744 5732 5724 5732 5746 5748 5741 5754 5763 5764 5764 5762 5760 5758 5758 5758 5756 5755 5754 5752 5750 5748 5746 5743 5739 5736 5734 5732 5730 5728 5727 5725 5723 5723 5721 5720 5719 5717 5714 5713 5711 5710 5709 5707 5707 5706 5704 5702
5741 5742 5752 5742 5741 5736 5741 5743 5746 5754 5752 5752 5751 5749 5749 5750 5750 5750 5749 5748 5746 5745 5743 5741 5738 5735 5733 5731 5728 5726 5724 5723 5722 5720 5718 5718 5716 5715 5713 5711 5709 5708 5706 5705 5704 5703 5702 5701 5699
5749 5745 5738 5730 5716 5718 5733 5736 5742 5741 5741 5742 5741 5741 5741 5742 5742 5742 5741 5741 5741 5741 5738 5736 5733 5731 5729 5727 5725 5724 5721 5719 5717 5716 5714 5713 5712 5710 5709 5707 5705 5704 5702 5701 5700 5699 5698 5696 5695
5732 5733 5732 5732 5734 5722 5722 5734 5748 5743 5740 5737 5736 5735 5734 5734 5734 5733 5733 5734 5735 5734 5732 5729 5727 5725 5724 5723 5721 5719 5717 5715 5713 5711 5710 5708 5707 5705 5704 5703 5702 5700 5699 5698 5696 5695 5694 5692 5691
5736 5733 5729 5716 5717 5723 5725 5727 5738 5738 5737 5733 5730 5728 5726 5726 5726 5726 5725 5725 5725 5725 5724 5723 5720 5719 5718 5717 5715 5713 5712 5710 5707 5706 5704 5703 5701 5701 5700 5699 5697 5696 5695 5694 5692 5691 5690 5688 5686